Location: Arrington
(35.8681°N, 86.7092°W)
Time: 16:43:33
(UTC+00:00)

Meteor 2-3 Rocket - Pass Details

Date: 23 November 2019
Orbit: 843 x 884 km, 81.2° (Epoch: 15 December)

Event Time Altitude Azimuth Distance (km) Brightness Sun altitude
Rises 10:59:23 0° 190° (S) 3,449 6.9 -18.4°
Reaches altitude 10° 11:01:48 10° 191° (S) 2,520 6.2 -17.9°
Maximum altitude 11:07:33 80° 279° (W) 899 3.7 -16.8°
Drops below altitude 10° 11:13:22 10° 6° (N) 2,550 6.1 -15.6°
Sets 11:15:50 0° 8° (N) 3,494 6.8 -15.1°
